Time,TemperatureF,DewpointF,PressureIn,WindDirection,WindDirectionDegrees,WindSpeedMPH,WindSpeedGustMPH,Humidity,HourlyPrecipIn,Conditions,Clouds,dailyrainin,SoftwareType,DateUTC
2013-12-26 00:01:00,27.4,22.9,30.27,NW,325,0.0,0.0,83,0.00,,---,0.00,VWS V14.01,2013-12-26 05:01:00,
2013-12-26 00:06:00,27.4,22.9,30.27,NW,325,0.0,0.0,83,0.00,,---,0.00,VWS V14.01,2013-12-26 05:06:00,
2013-12-26 00:11:00,27.4,23.2,30.27,NW,325,0.0,0.0,84,0.00,,---,0.00,VWS V14.01,2013-12-26 05:11:00,
2013-12-26 00:16:00,27.4,22.9,30.27,NW,325,0.0,0.0,83,0.00,,---,0.00,VWS V14.01,2013-12-26 05:16:00,
2013-12-26 00:21:00,27.3,23.1,30.27,NW,325,0.0,0.0,84,0.00,,---,0.00,VWS V14.01,2013-12-26 05:21:00,
2013-12-26 00:26:00,27.3,23.1,30.26,NW,325,0.0,0.0,84,0.00,,---,0.00,VWS V14.01,2013-12-26 05:26:00,
2013-12-26 00:31:00,27.3,23.1,30.26,NW,325,0.0,0.0,84,0.00,,---,0.00,VWS V14.01,2013-12-26 05:31:00,
2013-12-26 00:36:00,27.3,23.1,30.26,NW,325,0.0,0.0,84,0.00,,---,0.00,VWS V14.01,2013-12-26 05:36:00,
2013-12-26 00:41:00,27.2,23.3,30.26,NW,325,0.0,0.0,85,0.00,,---,0.00,VWS V14.01,2013-12-26 05:41:00,
2013-12-26 00:46:00,27.2,23.3,30.26,NW,325,0.0,0.0,85,0.00,,---,0.00,VWS V14.01,2013-12-26 05:46:00,
2013-12-26 00:51:00,27.2,23.3,30.25,NW,325,0.0,0.0,85,0.00,,---,0.00,VWS V14.01,2013-12-26 05:51:00,
2013-12-26 00:56:00,27.2,23.3,30.25,NW,325,0.0,0.0,85,0.00,,---,0.00,VWS V14.01,2013-12-26 05:56:00,
2013-12-26 01:01:00,27.1,23.2,30.25,NW,325,0.0,0.0,85,0.00,,---,0.00,VWS V14.01,2013-12-26 06:01:00,
2013-12-26 01:06:00,27.1,23.5,30.25,NW,325,0.0,0.0,86,0.00,,---,0.00,VWS V14.01,2013-12-26 06:06:00,
2013-12-26 01:11:00,27.1,23.5,30.25,NW,325,0.0,0.0,86,0.00,,---,0.00,VWS V14.01,2013-12-26 06:11:00,
2013-12-26 01:16:00,27.0,23.4,30.25,NW,325,0.0,0.0,86,0.00,,---,0.00,VWS V14.01,2013-12-26 06:16:00,
2013-12-26 01:21:00,27.0,23.4,30.25,NW,325,0.0,0.0,86,0.00,,---,0.00,VWS V14.01,2013-12-26 06:21:00,
2013-12-26 01:26:00,26.9,23.6,30.25,NW,325,0.0,0.0,87,0.00,,---,0.00,VWS V14.01,2013-12-26 06:26:00,
2013-12-26 01:31:00,26.9,23.6,30.25,NW,325,0.0,0.0,87,0.00,,---,0.00,VWS V14.01,2013-12-26 06:31:00,
2013-12-26 01:36:00,26.9,23.6,30.25,NW,325,0.0,0.0,87,0.00,,---,0.00,VWS V14.01,2013-12-26 06:36:00,
2013-12-26 01:41:00,26.8,23.5,30.24,NW,325,0.0,0.0,87,0.00,,---,0.00,VWS V14.01,2013-12-26 06:41:00,
2013-12-26 01:46:00,26.8,23.5,30.25,NW,325,0.0,0.0,87,0.00,,---,0.00,VWS V14.01,2013-12-26 06:46:00,
2013-12-26 01:51:00,26.8,23.7,30.24,NW,325,0.0,0.0,88,0.01,,---,0.01,VWS V14.01,2013-12-26 06:51:00,
2013-12-26 01:56:00,26.7,23.6,30.24,NW,325,0.0,0.0,88,0.01,,---,0.01,VWS V14.01,2013-12-26 06:56:00,
2013-12-26 02:01:00,26.7,23.6,30.24,NW,325,0.0,0.0,88,0.01,,---,0.01,VWS V14.01,2013-12-26 07:01:00,
2013-12-26 02:06:00,26.7,23.6,30.24,NW,325,0.0,1.0,88,0.01,,---,0.01,VWS V14.01,2013-12-26 07:06:00,
2013-12-26 02:11:00,26.7,23.6,30.24,ENE,78,0.0,0.0,88,0.01,,---,0.01,VWS V14.01,2013-12-26 07:11:00,
2013-12-26 02:16:00,26.7,23.6,30.24,East,79,0.0,1.0,88,0.01,,---,0.01,VWS V14.01,2013-12-26 07:16:00,
2013-12-26 02:21:00,26.6,23.5,30.23,East,90,0.0,2.0,88,0.02,,---,0.02,VWS V14.01,2013-12-26 07:21:00,
2013-12-26 02:26:00,26.7,23.9,30.23,East,90,0.0,0.0,89,0.02,,---,0.02,VWS V14.01,2013-12-26 07:26:00,
2013-12-26 02:31:00,26.6,23.8,30.23,East,90,0.0,0.0,89,0.02,,---,0.02,VWS V14.01,2013-12-26 07:31:00,
2013-12-26 02:36:00,26.6,23.8,30.23,East,90,0.0,0.0,89,0.02,,---,0.02,VWS V14.01,2013-12-26 07:36:00,
2013-12-26 02:41:00,26.6,23.8,30.24,East,90,0.0,0.0,89,0.02,,---,0.02,VWS V14.01,2013-12-26 07:41:00,
2013-12-26 02:46:00,26.6,24.1,30.24,East,90,0.0,0.0,90,0.02,,---,0.02,VWS V14.01,2013-12-26 07:46:00,
2013-12-26 02:51:00,26.5,24.0,30.23,East,90,0.0,0.0,90,0.01,,---,0.02,VWS V14.01,2013-12-26 07:51:00,
2013-12-26 02:56:00,26.5,24.0,30.23,East,90,0.0,0.0,90,0.02,,---,0.03,VWS V14.01,2013-12-26 07:56:00,
2013-12-26 03:01:00,26.5,24.0,30.24,East,90,0.0,0.0,90,0.02,,---,0.03,VWS V14.01,2013-12-26 08:01:00,
2013-12-26 03:06:00,26.5,24.0,30.23,East,90,0.0,0.0,90,0.02,,---,0.03,VWS V14.01,2013-12-26 08:06:00,
2013-12-26 03:11:00,26.6,24.1,30.22,East,90,0.0,0.0,90,0.02,,---,0.03,VWS V14.01,2013-12-26 08:11:00,
2013-12-26 03:16:00,26.6,24.1,30.22,East,83,0.0,1.0,90,0.02,,---,0.03,VWS V14.01,2013-12-26 08:16:00,
2013-12-26 03:21:00,26.6,24.1,30.22,East,84,0.0,1.0,90,0.01,,---,0.03,VWS V14.01,2013-12-26 08:21:00,
2013-12-26 03:26:00,26.7,24.2,30.21,East,84,0.0,1.0,90,0.01,,---,0.03,VWS V14.01,2013-12-26 08:26:00,
2013-12-26 03:31:00,26.7,24.4,30.21,East,80,0.0,0.0,91,0.01,,---,0.03,VWS V14.01,2013-12-26 08:31:00,
2013-12-26 03:36:00,26.7,24.4,30.20,East,80,0.0,0.0,91,0.01,,---,0.03,VWS V14.01,2013-12-26 08:36:00,
2013-12-26 03:41:00,26.8,24.5,30.20,East,80,0.0,0.0,91,0.01,,---,0.03,VWS V14.01,2013-12-26 08:41:00,
2013-12-26 03:46:00,26.8,24.5,30.21,East,80,0.0,0.0,91,0.01,,---,0.03,VWS V14.01,2013-12-26 08:46:00,
2013-12-26 03:51:00,26.9,24.6,30.21,East,80,0.0,0.0,91,0.01,,---,0.03,VWS V14.01,2013-12-26 08:51:00,
2013-12-26 03:56:00,26.9,24.6,30.21,East,80,0.0,0.0,91,0.01,,---,0.03,VWS V14.01,2013-12-26 08:56:00,
2013-12-26 04:01:00,26.9,24.6,30.20,East,80,0.0,0.0,91,0.00,,---,0.03,VWS V14.01,2013-12-26 09:01:00,
2013-12-26 04:06:00,26.9,24.6,30.20,East,80,0.0,0.0,91,0.00,,---,0.03,VWS V14.01,2013-12-26 09:06:00,
2013-12-26 04:11:00,27.0,24.7,30.20,East,80,0.0,0.0,91,0.00,,---,0.03,VWS V14.01,2013-12-26 09:11:00,
2013-12-26 04:16:00,27.1,24.8,30.20,SE,125,0.0,1.0,91,0.00,,---,0.03,VWS V14.01,2013-12-26 09:16:00,
2013-12-26 04:21:00,27.3,25.3,30.20,SSW,204,1.0,3.0,92,0.00,,---,0.03,VWS V14.01,2013-12-26 09:21:00,
2013-12-26 04:26:00,27.5,25.5,30.20,South,191,0.0,1.0,92,0.00,,---,0.03,VWS V14.01,2013-12-26 09:26:00,
2013-12-26 04:31:00,27.8,25.8,30.20,South,191,0.0,0.0,92,0.00,,---,0.03,VWS V14.01,2013-12-26 09:31:00,
2013-12-26 04:36:00,28.0,26.0,30.20,SSE,162,0.0,1.0,92,0.00,,---,0.03,VWS V14.01,2013-12-26 09:36:00,
2013-12-26 04:41:00,28.3,26.5,30.20,South,179,1.0,1.0,93,0.00,,---,0.03,VWS V14.01,2013-12-26 09:41:00,
2013-12-26 04:46:00,28.5,26.7,30.19,South,182,0.0,2.0,93,0.00,,---,0.03,VWS V14.01,2013-12-26 09:46:00,
2013-12-26 04:51:00,28.8,27.0,30.19,SSW,200,0.0,1.0,93,0.00,,---,0.03,VWS V14.01,2013-12-26 09:51:00,
2013-12-26 04:56:00,28.9,27.1,30.19,SSE,158,1.0,2.0,93,0.00,,---,0.03,VWS V14.01,2013-12-26 09:56:00,
2013-12-26 05:01:00,29.1,27.3,30.19,SSE,157,0.0,1.0,93,0.00,,---,0.03,VWS V14.01,2013-12-26 10:01:00,
2013-12-26 05:06:00,29.2,27.4,30.18,South,178,0.0,0.0,93,0.00,,---,0.03,VWS V14.01,2013-12-26 10:06:00,
2013-12-26 05:11:00,29.3,27.5,30.18,SSE,153,2.0,3.0,93,0.00,,---,0.03,VWS V14.01,2013-12-26 10:11:00,
2013-12-26 05:16:00,29.4,27.6,30.19,SSE,168,0.0,2.0,93,0.00,,---,0.03,VWS V14.01,2013-12-26 10:16:00,
2013-12-26 05:21:00,29.4,27.6,30.19,SSE,168,0.0,0.0,93,0.00,,---,0.03,VWS V14.01,2013-12-26 10:21:00,
2013-12-26 05:26:00,29.5,27.7,30.19,SSW,204,0.0,2.0,93,0.00,,---,0.03,VWS V14.01,2013-12-26 10:26:00,
2013-12-26 05:31:00,29.5,27.7,30.19,SSE,162,0.0,3.0,93,0.00,,---,0.03,VWS V14.01,2013-12-26 10:31:00,
2013-12-26 05:36:00,29.5,27.7,30.19,SSE,165,0.0,2.0,93,0.00,,---,0.03,VWS V14.01,2013-12-26 10:36:00,
2013-12-26 05:41:00,29.6,27.8,30.19,South,190,0.0,4.0,93,0.00,,---,0.03,VWS V14.01,2013-12-26 10:41:00,
2013-12-26 05:46:00,29.6,27.8,30.19,SSE,160,0.0,1.0,93,0.00,,---,0.03,VWS V14.01,2013-12-26 10:46:00,
2013-12-26 05:51:00,29.6,27.8,30.19,East,92,0.0,2.0,93,0.00,,---,0.03,VWS V14.01,2013-12-26 10:51:00,
2013-12-26 05:56:00,29.6,27.8,30.19,SSE,160,2.0,3.0,93,0.00,,---,0.03,VWS V14.01,2013-12-26 10:56:00,
2013-12-26 06:01:00,29.6,27.8,30.18,South,169,1.0,3.0,93,0.00,,---,0.03,VWS V14.01,2013-12-26 11:01:00,
2013-12-26 06:06:00,29.6,27.8,30.19,South,179,2.0,4.0,93,0.00,,---,0.03,VWS V14.01,2013-12-26 11:06:00,
2013-12-26 06:11:00,29.6,27.8,30.18,South,173,1.0,2.0,93,0.00,,---,0.03,VWS V14.01,2013-12-26 11:11:00,
2013-12-26 06:16:00,29.7,27.9,30.19,South,170,0.0,6.0,93,0.00,,---,0.03,VWS V14.01,2013-12-26 11:16:00,
2013-12-26 06:21:00,29.7,27.9,30.19,SSW,194,1.0,3.0,93,0.00,,---,0.03,VWS V14.01,2013-12-26 11:21:00,
2013-12-26 06:26:00,29.7,27.9,30.19,SSE,147,0.0,3.0,93,0.00,,---,0.03,VWS V14.01,2013-12-26 11:26:00,
2013-12-26 06:31:00,29.7,27.9,30.18,SSW,194,0.0,1.0,93,0.00,,---,0.03,VWS V14.01,2013-12-26 11:31:00,
2013-12-26 06:36:00,29.7,27.9,30.18,SSE,165,0.0,3.0,93,0.00,,---,0.03,VWS V14.01,2013-12-26 11:36:00,
2013-12-26 06:41:00,29.7,27.9,30.18,South,175,0.0,3.0,93,0.00,,---,0.03,VWS V14.01,2013-12-26 11:41:00,
2013-12-26 06:46:00,29.7,27.7,30.18,South,169,2.0,5.0,92,0.00,,---,0.03,VWS V14.01,2013-12-26 11:46:00,
2013-12-26 06:51:00,29.8,27.8,30.18,South,183,0.0,4.0,92,0.00,,---,0.03,VWS V14.01,2013-12-26 11:51:00,
2013-12-26 06:56:00,29.8,27.8,30.18,South,172,2.0,2.0,92,0.00,,---,0.03,VWS V14.01,2013-12-26 11:56:00,
2013-12-26 07:01:00,29.8,27.8,30.18,South,185,0.0,0.0,92,0.00,,---,0.03,VWS V14.01,2013-12-26 12:01:00,
2013-12-26 07:06:00,29.8,27.8,30.19,SSE,164,3.0,4.0,92,0.00,,---,0.03,VWS V14.01,2013-12-26 12:06:00,
2013-12-26 07:11:00,29.8,27.8,30.19,South,170,0.0,2.0,92,0.00,,---,0.03,VWS V14.01,2013-12-26 12:11:00,
2013-12-26 07:16:00,29.8,27.8,30.19,South,174,3.0,4.0,92,0.00,,---,0.03,VWS V14.01,2013-12-26 12:16:00,
2013-12-26 07:21:00,29.8,27.8,30.20,SSW,197,0.0,2.0,92,0.00,,---,0.03,VWS V14.01,2013-12-26 12:21:00,
2013-12-26 07:26:00,29.9,27.9,30.20,South,178,0.0,2.0,92,0.00,,---,0.03,VWS V14.01,2013-12-26 12:26:00,
2013-12-26 07:31:00,29.9,27.9,30.20,South,170,1.0,1.0,92,0.00,,---,0.03,VWS V14.01,2013-12-26 12:31:00,
2013-12-26 07:36:00,29.9,27.9,30.20,South,170,0.0,1.0,92,0.00,,---,0.03,VWS V14.01,2013-12-26 12:36:00,
2013-12-26 07:41:00,29.9,27.9,30.20,South,172,0.0,2.0,92,0.00,,---,0.03,VWS V14.01,2013-12-26 12:41:00,
2013-12-26 07:46:00,29.9,27.9,30.20,South,172,0.0,1.0,92,0.00,,---,0.03,VWS V14.01,2013-12-26 12:46:00,
2013-12-26 07:51:00,29.9,27.9,30.20,South,172,0.0,0.0,92,0.00,,---,0.03,VWS V14.01,2013-12-26 12:51:00,
2013-12-26 07:56:00,30.0,28.0,30.21,South,172,0.0,0.0,92,0.00,,---,0.03,VWS V14.01,2013-12-26 12:56:00,
2013-12-26 07:59:00,30.0,28.0,30.21,SSE,165,1.0,3.0,92,0.00,,---,0.03,VWS V14.01,2013-12-26 12:59:00,
2013-12-26 08:04:00,30.1,28.1,30.21,SSW,198,0.0,1.0,92,0.00,,---,0.03,VWS V14.01,2013-12-26 13:04:00,
2013-12-26 08:09:00,30.1,28.1,30.21,South,184,4.0,4.0,92,0.00,,---,0.03,VWS V14.01,2013-12-26 13:09:00,
2013-12-26 08:14:00,30.2,28.2,30.21,SSE,147,0.0,2.0,92,0.00,,---,0.03,VWS V14.01,2013-12-26 13:14:00,
2013-12-26 08:19:00,30.3,28.0,30.21,NNW,339,1.0,1.0,91,0.00,,---,0.03,VWS V14.01,2013-12-26 13:19:00,
2013-12-26 08:24:00,30.4,28.1,30.21,SSW,198,5.0,5.0,91,0.00,,---,0.03,VWS V14.01,2013-12-26 13:24:00,
2013-12-26 08:29:00,30.6,28.3,30.21,NW,322,0.0,2.0,91,0.00,,---,0.03,VWS V14.01,2013-12-26 13:29:00,
2013-12-26 08:34:00,30.7,28.4,30.22,South,175,0.0,1.0,91,0.00,,---,0.03,VWS V14.01,2013-12-26 13:34:00,
2013-12-26 08:39:00,30.8,28.5,30.22,WSW,243,0.0,2.0,91,0.00,,---,0.03,VWS V14.01,2013-12-26 13:39:00,
2013-12-26 08:44:00,30.9,28.6,30.22,West,273,0.0,3.0,91,0.00,,---,0.03,VWS V14.01,2013-12-26 13:44:00,
2013-12-26 08:49:00,31.0,28.4,30.22,WSW,241,1.0,1.0,90,0.00,,---,0.03,VWS V14.01,2013-12-26 13:49:00,
2013-12-26 08:54:00,31.1,28.5,30.23,WNW,286,0.0,4.0,90,0.00,,---,0.03,VWS V14.01,2013-12-26 13:54:00,
2013-12-26 08:59:00,31.2,28.6,30.23,South,184,0.0,5.0,90,0.00,,---,0.03,VWS V14.01,2013-12-26 13:59:00,
2013-12-26 09:04:00,31.2,28.3,30.23,West,281,0.0,0.0,89,0.00,,---,0.03,VWS V14.01,2013-12-26 14:04:00,
2013-12-26 09:09:00,31.3,28.4,30.23,WSW,247,0.0,3.0,89,0.00,,---,0.03,VWS V14.01,2013-12-26 14:09:00,
2013-12-26 09:14:00,31.3,28.4,30.23,WNW,289,0.0,4.0,89,0.00,,---,0.03,VWS V14.01,2013-12-26 14:14:00,
2013-12-26 09:19:00,31.4,28.5,30.24,West,276,3.0,5.0,89,0.00,,---,0.03,VWS V14.01,2013-12-26 14:19:00,
2013-12-26 09:24:00,31.5,28.6,30.24,South,183,3.0,3.0,89,0.00,,---,0.03,VWS V14.01,2013-12-26 14:24:00,
2013-12-26 09:29:00,31.6,28.5,30.24,SE,142,3.0,3.0,88,0.00,,---,0.03,VWS V14.01,2013-12-26 14:29:00,
2013-12-26 09:34:00,31.6,28.5,30.25,SSW,211,0.0,4.0,88,0.00,,---,0.03,VWS V14.01,2013-12-26 14:34:00,
2013-12-26 09:39:00,31.7,28.6,30.25,South,180,3.0,3.0,88,0.00,,---,0.03,VWS V14.01,2013-12-26 14:39:00,
2013-12-26 09:44:00,31.7,28.6,30.25,South,173,0.0,0.0,88,0.00,,---,0.03,VWS V14.01,2013-12-26 14:44:00,
2013-12-26 09:49:00,31.9,29.0,30.25,South,171,2.0,2.0,89,0.00,,---,0.03,VWS V14.01,2013-12-26 14:49:00,
2013-12-26 09:54:00,32.1,29.2,30.25,SSW,193,0.0,5.0,89,0.00,,---,0.03,VWS V14.01,2013-12-26 14:54:00,
2013-12-26 09:59:00,32.1,29.2,30.25,West,267,0.0,4.0,89,0.00,,---,0.03,VWS V14.01,2013-12-26 14:59:00,
2013-12-26 10:04:00,32.2,29.0,30.26,South,183,1.0,1.0,88,0.00,,---,0.03,VWS V14.01,2013-12-26 15:04:00,
2013-12-26 10:09:00,32.3,29.1,30.26,WNW,288,2.0,3.0,88,0.00,,---,0.03,VWS V14.01,2013-12-26 15:09:00,
2013-12-26 10:14:00,32.4,29.2,30.26,SW,232,0.0,4.0,88,0.00,,---,0.03,VWS V14.01,2013-12-26 15:14:00,
2013-12-26 10:19:00,32.5,29.4,30.27,South,175,5.0,5.0,88,0.00,,---,0.03,VWS V14.01,2013-12-26 15:19:00,
2013-12-26 10:24:00,32.6,29.5,30.26,WNW,285,1.0,1.0,88,0.00,,---,0.03,VWS V14.01,2013-12-26 15:24:00,
2013-12-26 10:29:00,32.7,29.3,30.26,SW,216,5.0,6.0,87,0.00,,---,0.03,VWS V14.01,2013-12-26 15:29:00,
2013-12-26 10:34:00,32.8,29.4,30.27,South,182,0.0,5.0,87,0.00,,---,0.03,VWS V14.01,2013-12-26 15:34:00,
2013-12-26 10:39:00,32.9,29.5,30.27,SW,231,0.0,2.0,87,0.00,,---,0.03,VWS V14.01,2013-12-26 15:39:00,
2013-12-26 10:44:00,33.3,29.9,30.27,SSW,194,2.0,9.0,87,0.00,,---,0.03,VWS V14.01,2013-12-26 15:44:00,
2013-12-26 10:49:00,33.5,29.8,30.27,SSE,148,7.0,7.0,86,0.00,,---,0.03,VWS V14.01,2013-12-26 15:49:00,
2013-12-26 10:54:00,33.6,29.6,30.27,South,180,0.0,4.0,85,0.00,,---,0.03,VWS V14.01,2013-12-26 15:54:00,
2013-12-26 10:59:00,33.6,29.3,30.26,SSE,150,4.0,4.0,84,0.00,,---,0.03,VWS V14.01,2013-12-26 15:59:00,
2013-12-26 11:04:00,33.7,29.1,30.27,SSE,153,0.0,4.0,83,0.00,,---,0.03,VWS V14.01,2013-12-26 16:04:00,
2013-12-26 11:09:00,33.7,29.1,30.27,South,178,4.0,11.0,83,0.00,,---,0.03,VWS V14.01,2013-12-26 16:09:00,
2013-12-26 11:14:00,33.6,29.0,30.27,South,186,3.0,4.0,83,0.00,,---,0.03,VWS V14.01,2013-12-26 16:14:00,
2013-12-26 11:19:00,33.7,29.1,30.26,South,186,1.0,1.0,83,0.00,,---,0.03,VWS V14.01,2013-12-26 16:19:00,
2013-12-26 11:24:00,34.0,29.4,30.26,West,273,0.0,4.0,83,0.00,,---,0.03,VWS V14.01,2013-12-26 16:24:00,
2013-12-26 11:29:00,34.3,29.7,30.26,WNW,282,0.0,5.0,83,0.00,,---,0.03,VWS V14.01,2013-12-26 16:29:00,
2013-12-26 11:34:00,34.7,29.8,30.26,South,173,0.0,6.0,82,0.00,,---,0.03,VWS V14.01,2013-12-26 16:34:00,
2013-12-26 11:39:00,35.0,29.8,30.26,South,182,1.0,1.0,81,0.00,,---,0.03,VWS V14.01,2013-12-26 16:39:00,
2013-12-26 11:44:00,35.0,29.5,30.26,SE,136,1.0,5.0,80,0.00,,---,0.03,VWS V14.01,2013-12-26 16:44:00,
2013-12-26 11:49:00,34.9,29.1,30.25,SSW,202,2.0,5.0,79,0.00,,---,0.03,VWS V14.01,2013-12-26 16:49:00,
2013-12-26 11:54:00,34.8,28.6,30.25,SSW,192,1.0,8.0,78,0.00,,---,0.03,VWS V14.01,2013-12-26 16:54:00,
2013-12-26 11:59:00,34.5,28.0,30.25,South,179,4.0,9.0,77,0.00,,---,0.03,VWS V14.01,2013-12-26 16:59:00,
2013-12-26 12:04:00,34.5,28.0,30.25,South,180,2.0,10.0,77,0.00,,---,0.03,VWS V14.01,2013-12-26 17:04:00,
2013-12-26 12:09:00,34.6,27.8,30.25,ENE,59,1.0,7.0,76,0.00,,---,0.03,VWS V14.01,2013-12-26 17:09:00,
2013-12-26 12:14:00,34.5,27.4,30.25,SSW,213,5.0,16.0,75,0.00,,---,0.03,VWS V14.01,2013-12-26 17:14:00,
2013-12-26 12:19:00,34.4,27.3,30.26,NNE,30,0.0,2.0,75,0.00,,---,0.03,VWS V14.01,2013-12-26 17:19:00,
2013-12-26 12:24:00,34.6,27.5,30.26,SSW,209,9.0,9.0,75,0.00,,---,0.03,VWS V14.01,2013-12-26 17:24:00,
2013-12-26 12:29:00,34.8,27.0,30.26,NW,311,4.0,8.0,73,0.00,,---,0.03,VWS V14.01,2013-12-26 17:29:00,
2013-12-26 12:34:00,35.2,27.1,30.25,WNW,283,0.0,2.0,72,0.00,,---,0.03,VWS V14.01,2013-12-26 17:34:00,
2013-12-26 12:39:00,35.8,27.3,30.25,SSW,209,1.0,4.0,71,0.00,,---,0.03,VWS V14.01,2013-12-26 17:39:00,
2013-12-26 12:44:00,36.1,27.3,30.25,WSW,247,3.0,10.0,70,0.00,,---,0.03,VWS V14.01,2013-12-26 17:44:00,
2013-12-26 12:49:00,36.4,27.2,30.25,WSW,253,1.0,6.0,69,0.00,,---,0.03,VWS V14.01,2013-12-26 17:49:00,
2013-12-26 12:54:00,36.6,27.4,30.26,South,184,0.0,4.0,69,0.00,,---,0.03,VWS V14.01,2013-12-26 17:54:00,
2013-12-26 12:59:00,37.0,27.4,30.26,SW,225,3.0,4.0,68,0.00,,---,0.03,VWS V14.01,2013-12-26 17:59:00,
2013-12-26 13:04:00,37.4,28.2,30.26,NNW,337,2.0,8.0,69,0.00,,---,0.03,VWS V14.01,2013-12-26 18:04:00,
2013-12-26 13:09:00,37.5,27.2,30.26,West,279,0.0,1.0,66,0.00,,---,0.03,VWS V14.01,2013-12-26 18:09:00,
2013-12-26 13:14:00,37.5,27.2,30.25,WNW,302,2.0,9.0,66,0.00,,---,0.03,VWS V14.01,2013-12-26 18:14:00,
2013-12-26 13:19:00,37.4,26.4,30.25,WNW,292,2.0,2.0,64,0.00,,---,0.03,VWS V14.01,2013-12-26 18:19:00,
2013-12-26 13:24:00,37.4,26.7,30.25,SW,222,2.0,5.0,65,0.00,,---,0.03,VWS V14.01,2013-12-26 18:24:00,
2013-12-26 13:29:00,37.5,26.8,30.25,SW,221,1.0,4.0,65,0.00,,---,0.03,VWS V14.01,2013-12-26 18:29:00,
2013-12-26 13:34:00,37.7,27.0,30.25,WSW,238,0.0,7.0,65,0.00,,---,0.03,VWS V14.01,2013-12-26 18:34:00,
2013-12-26 13:39:00,37.8,27.1,30.25,SW,215,0.0,4.0,65,0.00,,---,0.03,VWS V14.01,2013-12-26 18:39:00,
2013-12-26 13:44:00,38.0,27.7,30.25,SSE,155,1.0,2.0,66,0.00,,---,0.03,VWS V14.01,2013-12-26 18:44:00,
2013-12-26 13:49:00,38.1,27.8,30.25,West,275,4.0,4.0,66,0.00,,---,0.03,VWS V14.01,2013-12-26 18:49:00,
2013-12-26 13:54:00,38.2,27.1,30.25,SSW,197,6.0,6.0,64,0.00,,---,0.03,VWS V14.01,2013-12-26 18:54:00,
2013-12-26 13:59:00,38.0,26.1,30.25,SSW,213,2.0,5.0,62,0.00,,---,0.03,VWS V14.01,2013-12-26 18:59:00,
2013-12-26 14:04:00,38.1,26.2,30.25,SSE,167,2.0,4.0,62,0.00,,---,0.03,VWS V14.01,2013-12-26 19:04:00,
2013-12-26 14:09:00,38.3,26.4,30.25,WNW,284,5.0,5.0,62,0.00,,---,0.03,VWS V14.01,2013-12-26 19:09:00,
2013-12-26 14:14:00,38.5,26.2,30.25,SSW,205,3.0,7.0,61,0.00,,---,0.03,VWS V14.01,2013-12-26 19:14:00,
2013-12-26 14:19:00,38.6,26.3,30.25,SSW,194,0.0,6.0,61,0.00,,---,0.03,VWS V14.01,2013-12-26 19:19:00,
2013-12-26 14:24:00,38.6,25.5,30.26,WSW,250,5.0,12.0,59,0.00,,---,0.03,VWS V14.01,2013-12-26 19:24:00,
2013-12-26 14:29:00,38.6,25.1,30.25,WSW,247,0.0,4.0,58,0.00,,---,0.03,VWS V14.01,2013-12-26 19:29:00,
2013-12-26 14:34:00,38.6,25.5,30.25,NNE,29,4.0,6.0,59,0.00,,---,0.03,VWS V14.01,2013-12-26 19:34:00,
2013-12-26 14:39:00,38.5,25.0,30.25,West,270,5.0,5.0,58,0.00,,---,0.03,VWS V14.01,2013-12-26 19:39:00,
2013-12-26 14:44:00,38.6,25.1,30.26,SW,223,0.0,10.0,58,0.00,,---,0.03,VWS V14.01,2013-12-26 19:44:00,
2013-12-26 14:49:00,38.7,25.6,30.26,WNW,286,0.0,1.0,59,0.00,,---,0.03,VWS V14.01,2013-12-26 19:49:00,
2013-12-26 14:54:00,38.8,26.1,30.26,WSW,238,2.0,2.0,60,0.00,,---,0.03,VWS V14.01,2013-12-26 19:54:00,
2013-12-26 14:59:00,38.9,26.2,30.26,WSW,243,0.0,1.0,60,0.00,,---,0.03,VWS V14.01,2013-12-26 19:59:00,
2013-12-26 15:04:00,39.0,25.5,30.26,SW,219,0.0,3.0,58,0.00,,---,0.03,VWS V14.01,2013-12-26 20:04:00,
2013-12-26 15:09:00,38.9,25.0,30.26,South,170,0.0,3.0,57,0.00,,---,0.03,VWS V14.01,2013-12-26 20:09:00,
2013-12-26 15:14:00,38.8,24.9,30.26,SE,146,1.0,3.0,57,0.00,,---,0.03,VWS V14.01,2013-12-26 20:14:00,
2013-12-26 15:19:00,38.5,24.2,30.26,SSW,194,1.0,3.0,56,0.00,,---,0.03,VWS V14.01,2013-12-26 20:19:00,
2013-12-26 15:24:00,38.3,24.0,30.26,SSE,149,0.0,3.0,56,0.00,,---,0.03,VWS V14.01,2013-12-26 20:24:00,
2013-12-26 15:29:00,38.0,23.7,30.26,SW,235,2.0,7.0,56,0.00,,---,0.03,VWS V14.01,2013-12-26 20:29:00,
2013-12-26 15:34:00,37.8,23.5,30.26,West,260,0.0,5.0,56,0.00,,---,0.03,VWS V14.01,2013-12-26 20:34:00,
2013-12-26 15:39:00,37.7,23.4,30.27,West,260,0.0,0.0,56,0.00,,---,0.03,VWS V14.01,2013-12-26 20:39:00,
2013-12-26 15:44:00,37.5,23.2,30.26,SW,225,2.0,2.0,56,0.00,,---,0.03,VWS V14.01,2013-12-26 20:44:00,
2013-12-26 15:49:00,37.4,23.1,30.26,WSW,246,0.0,1.0,56,0.00,,---,0.03,VWS V14.01,2013-12-26 20:49:00,
2013-12-26 15:54:00,37.3,23.1,30.26,SSW,204,4.0,4.0,56,0.00,,---,0.03,VWS V14.01,2013-12-26 20:54:00,
2013-12-26 15:59:00,37.3,23.1,30.27,West,280,0.0,1.0,56,0.00,,---,0.03,VWS V14.01,2013-12-26 20:59:00,
2013-12-26 16:04:00,37.2,23.0,30.27,West,277,0.0,1.0,56,0.00,,---,0.03,VWS V14.01,2013-12-26 21:04:00,
2013-12-26 16:09:00,37.2,23.8,30.27,West,277,0.0,0.0,58,0.00,,---,0.03,VWS V14.01,2013-12-26 21:09:00,
2013-12-26 16:14:00,37.0,23.2,30.27,West,261,2.0,2.0,57,0.00,,---,0.03,VWS V14.01,2013-12-26 21:14:00,
2013-12-26 16:19:00,36.9,23.1,30.27,SW,220,0.0,2.0,57,0.00,,---,0.03,VWS V14.01,2013-12-26 21:19:00,
2013-12-26 16:24:00,36.7,22.5,30.27,West,278,0.0,0.0,56,0.00,,---,0.03,VWS V14.01,2013-12-26 21:24:00,
2013-12-26 16:29:00,36.5,22.3,30.28,NW,305,1.0,1.0,56,0.00,,---,0.03,VWS V14.01,2013-12-26 21:29:00,
2013-12-26 16:34:00,36.3,22.1,30.28,West,259,3.0,6.0,56,0.00,,---,0.03,VWS V14.01,2013-12-26 21:34:00,
2013-12-26 16:39:00,36.1,21.9,30.29,WNW,292,0.0,1.0,56,0.00,,---,0.03,VWS V14.01,2013-12-26 21:39:00,
2013-12-26 16:44:00,35.9,21.8,30.28,WSW,244,3.0,4.0,56,0.00,,---,0.03,VWS V14.01,2013-12-26 21:44:00,
2013-12-26 16:49:00,35.8,21.6,30.28,NW,306,0.0,0.0,56,0.00,,---,0.03,VWS V14.01,2013-12-26 21:49:00,
2013-12-26 16:54:00,35.7,22.0,30.29,WSW,240,0.0,0.0,57,0.00,,---,0.03,VWS V14.01,2013-12-26 21:54:00,
2013-12-26 16:59:00,35.5,21.8,30.29,West,262,0.0,1.0,57,0.00,,---,0.03,VWS V14.01,2013-12-26 21:59:00,
2013-12-26 17:04:00,35.3,21.6,30.29,West,277,0.0,0.0,57,0.00,,---,0.03,VWS V14.01,2013-12-26 22:04:00,
2013-12-26 17:09:00,35.1,21.8,30.29,West,277,0.0,0.0,58,0.00,,---,0.03,VWS V14.01,2013-12-26 22:09:00,
2013-12-26 17:14:00,34.9,21.6,30.29,West,277,0.0,0.0,58,0.00,,---,0.03,VWS V14.01,2013-12-26 22:14:00,
2013-12-26 17:19:00,34.7,21.9,30.29,West,277,0.0,0.0,59,0.00,,---,0.03,VWS V14.01,2013-12-26 22:19:00,
2013-12-26 17:24:00,34.5,21.7,30.29,WSW,251,1.0,1.0,59,0.00,,---,0.03,VWS V14.01,2013-12-26 22:24:00,
2013-12-26 17:29:00,34.2,21.8,30.29,WSW,251,0.0,0.0,60,0.00,,---,0.03,VWS V14.01,2013-12-26 22:29:00,
2013-12-26 17:34:00,33.9,21.5,30.29,WSW,251,0.0,0.0,60,0.00,,---,0.03,VWS V14.01,2013-12-26 22:34:00,
2013-12-26 17:35:00,33.9,21.5,30.29,WSW,251,0.0,0.0,60,0.00,,---,0.03,VWS V14.01,2013-12-26 22:35:00,
2013-12-26 17:40:00,33.5,21.5,30.30,WSW,251,0.0,0.0,61,0.00,,---,0.03,VWS V14.01,2013-12-26 22:40:00,
2013-12-26 17:45:00,33.2,21.2,30.30,WSW,251,0.0,0.0,61,0.00,,---,0.03,VWS V14.01,2013-12-26 22:45:00,
2013-12-26 17:50:00,32.8,21.2,30.30,WSW,251,0.0,0.0,62,0.00,,---,0.03,VWS V14.01,2013-12-26 22:50:00,
2013-12-26 17:55:00,32.4,21.2,30.30,WSW,252,0.0,0.0,63,0.00,,---,0.03,VWS V14.01,2013-12-26 22:55:00,
2013-12-26 18:00:00,32.0,21.2,30.30,SW,234,2.0,4.0,64,0.00,,---,0.03,VWS V14.01,2013-12-26 23:00:00,
2013-12-26 18:05:00,31.8,21.0,30.30,West,259,0.0,4.0,64,0.00,,---,0.03,VWS V14.01,2013-12-26 23:05:00,
2013-12-26 18:10:00,31.7,20.9,30.31,West,260,0.0,2.0,64,0.00,,---,0.03,VWS V14.01,2013-12-26 23:10:00,
2013-12-26 18:15:00,31.7,20.9,30.31,WSW,243,0.0,3.0,64,0.00,,---,0.03,VWS V14.01,2013-12-26 23:15:00,
2013-12-26 18:20:00,31.8,21.0,30.31,West,273,0.0,2.0,64,0.00,,---,0.03,VWS V14.01,2013-12-26 23:20:00,
2013-12-26 18:25:00,31.9,21.1,30.32,West,274,0.0,1.0,64,0.00,,---,0.03,VWS V14.01,2013-12-26 23:25:00,
2013-12-26 18:30:00,32.0,21.2,30.32,WSW,249,0.0,5.0,64,0.00,,---,0.03,VWS V14.01,2013-12-26 23:30:00,
2013-12-26 18:35:00,32.2,21.0,30.32,South,169,1.0,6.0,63,0.00,,---,0.03,VWS V14.01,2013-12-26 23:35:00,
2013-12-26 18:36:00,32.2,21.0,30.32,WSW,238,0.0,6.0,63,0.00,,---,0.03,VWS V14.01,2013-12-26 23:36:00,
2013-12-26 18:41:00,32.4,21.2,30.32,WSW,242,0.0,2.0,63,0.00,,---,0.03,VWS V14.01,2013-12-26 23:41:00,
2013-12-26 18:42:00,32.4,21.2,30.32,WSW,242,1.0,2.0,63,0.00,,---,0.03,VWS V14.01,2013-12-26 23:42:00,
2013-12-26 18:47:00,32.5,21.3,30.33,SSE,158,5.0,6.0,63,0.00,,---,0.03,VWS V14.01,2013-12-26 23:47:00,
2013-12-26 18:49:00,32.5,21.3,30.33,West,269,1.0,3.0,63,0.00,,---,0.03,VWS V14.01,2013-12-26 23:49:00,
2013-12-26 18:54:00,32.6,21.4,30.33,SSW,198,0.0,2.0,63,0.00,,---,0.03,VWS V14.01,2013-12-26 23:54:00,
2013-12-26 18:59:00,32.6,21.4,30.33,SSW,203,2.0,4.0,63,0.00,,---,0.03,VWS V14.01,2013-12-26 23:59:00,
2013-12-26 19:04:00,32.7,21.5,30.33,SSW,213,0.0,4.0,63,0.00,,---,0.03,VWS V14.01,2013-12-27 00:04:00,
2013-12-26 19:09:00,32.6,21.4,30.33,SW,219,3.0,3.0,63,0.00,,---,0.03,VWS V14.01,2013-12-27 00:09:00,
2013-12-26 19:14:00,32.6,21.4,30.33,West,261,1.0,3.0,63,0.00,,---,0.03,VWS V14.01,2013-12-27 00:14:00,
2013-12-26 19:19:00,32.6,21.4,30.34,WSW,247,0.0,0.0,63,0.00,,---,0.03,VWS V14.01,2013-12-27 00:19:00,
2013-12-26 19:24:00,32.6,21.4,30.34,WSW,254,0.0,1.0,63,0.00,,---,0.03,VWS V14.01,2013-12-27 00:24:00,
2013-12-26 19:29:00,32.5,21.3,30.34,WNW,289,0.0,1.0,63,0.00,,---,0.03,VWS V14.01,2013-12-27 00:29:00,
2013-12-26 19:34:00,32.4,21.6,30.34,West,263,0.0,2.0,64,0.00,,---,0.03,VWS V14.01,2013-12-27 00:34:00,
2013-12-26 19:39:00,32.3,21.5,30.34,West,263,0.0,0.0,64,0.00,,---,0.03,VWS V14.01,2013-12-27 00:39:00,
2013-12-26 19:44:00,32.1,21.3,30.34,West,263,0.0,0.0,64,0.00,,---,0.03,VWS V14.01,2013-12-27 00:44:00,
2013-12-26 19:49:00,32.0,21.6,30.35,West,263,0.0,0.0,65,0.00,,---,0.03,VWS V14.01,2013-12-27 00:49:00,
2013-12-26 19:54:00,31.9,21.5,30.35,West,263,0.0,3.0,65,0.00,,---,0.03,VWS V14.01,2013-12-27 00:54:00,
2013-12-26 19:59:00,31.7,21.3,30.35,West,263,0.0,0.0,65,0.00,,---,0.03,VWS V14.01,2013-12-27 00:59:00,
2013-12-26 20:04:00,31.5,21.5,30.35,West,263,0.0,0.0,66,0.00,,---,0.03,VWS V14.01,2013-12-27 01:04:00,
2013-12-26 20:09:00,31.3,21.3,30.35,West,263,0.0,0.0,66,0.00,,---,0.03,VWS V14.01,2013-12-27 01:09:00,
2013-12-26 20:14:00,31.1,21.1,30.35,West,263,2.0,2.0,66,0.00,,---,0.03,VWS V14.01,2013-12-27 01:14:00,
2013-12-26 20:19:00,30.9,21.2,30.35,West,263,0.0,1.0,67,0.00,,---,0.03,VWS V14.01,2013-12-27 01:19:00,
2013-12-26 20:24:00,30.7,21.1,30.36,West,273,0.0,0.0,67,0.00,,---,0.03,VWS V14.01,2013-12-27 01:24:00,
2013-12-26 20:29:00,30.5,20.9,30.36,West,273,0.0,0.0,67,0.00,,---,0.03,VWS V14.01,2013-12-27 01:29:00,
2013-12-26 20:34:00,30.3,21.0,30.36,West,273,0.0,0.0,68,0.00,,---,0.03,VWS V14.01,2013-12-27 01:34:00,
2013-12-26 20:39:00,30.1,20.8,30.36,West,273,0.0,0.0,68,0.00,,---,0.03,VWS V14.01,2013-12-27 01:39:00,
2013-12-26 20:44:00,29.9,20.6,30.35,West,273,0.0,0.0,68,0.00,,---,0.03,VWS V14.01,2013-12-27 01:44:00,
2013-12-26 20:49:00,29.7,20.8,30.36,West,273,0.0,0.0,69,0.00,,---,0.03,VWS V14.01,2013-12-27 01:49:00,
2013-12-26 20:54:00,29.5,20.6,30.36,West,273,0.0,0.0,69,0.00,,---,0.03,VWS V14.01,2013-12-27 01:54:00,
2013-12-26 20:59:00,29.3,20.4,30.36,West,273,0.0,0.0,69,0.00,,---,0.03,VWS V14.01,2013-12-27 01:59:00,
2013-12-26 21:04:00,29.1,20.5,30.36,West,273,0.0,0.0,70,0.00,,---,0.03,VWS V14.01,2013-12-27 02:04:00,
2013-12-26 21:09:00,28.9,20.4,30.36,West,273,0.0,0.0,70,0.00,,---,0.03,VWS V14.01,2013-12-27 02:09:00,
2013-12-26 21:14:00,28.8,20.3,30.36,West,273,0.0,0.0,70,0.00,,---,0.03,VWS V14.01,2013-12-27 02:14:00,
2013-12-26 21:19:00,28.6,20.1,30.37,West,273,0.0,0.0,70,0.00,,---,0.03,VWS V14.01,2013-12-27 02:19:00,
2013-12-26 21:24:00,28.4,20.2,30.37,West,273,0.0,0.0,71,0.00,,---,0.03,VWS V14.01,2013-12-27 02:24:00,
2013-12-26 21:29:00,28.2,20.0,30.37,West,273,0.0,0.0,71,0.00,,---,0.03,VWS V14.01,2013-12-27 02:29:00,
2013-12-26 21:34:00,28.0,19.8,30.37,West,273,0.0,0.0,71,0.00,,---,0.03,VWS V14.01,2013-12-27 02:34:00,
2013-12-26 21:39:00,27.8,19.6,30.37,West,273,0.0,0.0,71,0.00,,---,0.03,VWS V14.01,2013-12-27 02:39:00,
2013-12-26 21:44:00,27.5,19.7,30.37,West,273,0.0,0.0,72,0.00,,---,0.03,VWS V14.01,2013-12-27 02:44:00,
2013-12-26 21:49:00,27.2,19.4,30.38,West,273,0.0,0.0,72,0.00,,---,0.03,VWS V14.01,2013-12-27 02:49:00,
2013-12-26 21:54:00,27.0,19.2,30.38,West,273,0.0,0.0,72,0.00,,---,0.03,VWS V14.01,2013-12-27 02:54:00,
2013-12-26 21:59:00,26.7,18.9,30.38,West,273,0.0,0.0,72,0.00,,---,0.03,VWS V14.01,2013-12-27 02:59:00,
2013-12-26 22:04:00,26.4,18.9,30.37,West,273,0.0,0.0,73,0.00,,---,0.03,VWS V14.01,2013-12-27 03:04:00,
2013-12-26 22:09:00,26.1,18.6,30.37,West,273,0.0,0.0,73,0.00,,---,0.03,VWS V14.01,2013-12-27 03:09:00,
2013-12-26 22:14:00,25.8,18.7,30.38,West,273,0.0,0.0,74,0.00,,---,0.03,VWS V14.01,2013-12-27 03:14:00,
2013-12-26 22:19:00,25.6,18.5,30.37,West,273,0.0,0.0,74,0.00,,---,0.03,VWS V14.01,2013-12-27 03:19:00,
2013-12-26 22:24:00,25.3,18.5,30.37,West,273,0.0,0.0,75,0.00,,---,0.03,VWS V14.01,2013-12-27 03:24:00,
2013-12-26 22:29:00,25.1,18.3,30.37,West,273,0.0,0.0,75,0.00,,---,0.03,VWS V14.01,2013-12-27 03:29:00,
2013-12-26 22:34:00,24.8,18.0,30.37,West,273,0.0,0.0,75,0.00,,---,0.03,VWS V14.01,2013-12-27 03:34:00,
2013-12-26 22:39:00,24.5,17.7,30.37,West,273,0.0,0.0,75,0.00,,---,0.03,VWS V14.01,2013-12-27 03:39:00,
2013-12-26 22:44:00,24.3,17.8,30.37,West,273,0.0,0.0,76,0.00,,---,0.03,VWS V14.01,2013-12-27 03:44:00,
2013-12-26 22:49:00,24.1,17.6,30.37,West,273,0.0,0.0,76,0.00,,---,0.03,VWS V14.01,2013-12-27 03:49:00,
2013-12-26 22:54:00,23.9,17.8,30.37,West,273,0.0,0.0,77,0.00,,---,0.03,VWS V14.01,2013-12-27 03:54:00,
2013-12-26 22:59:00,23.6,17.5,30.38,West,273,0.0,0.0,77,0.00,,---,0.03,VWS V14.01,2013-12-27 03:59:00,
2013-12-26 23:04:00,23.4,17.3,30.38,West,273,0.0,0.0,77,0.00,,---,0.03,VWS V14.01,2013-12-27 04:04:00,
2013-12-26 23:09:00,23.2,17.1,30.38,West,273,0.0,0.0,77,0.00,,---,0.03,VWS V14.01,2013-12-27 04:09:00,
2013-12-26 23:14:00,23.0,17.2,30.38,West,273,0.0,0.0,78,0.00,,---,0.03,VWS V14.01,2013-12-27 04:14:00,
2013-12-26 23:19:00,22.9,17.1,30.38,West,273,0.0,0.0,78,0.00,,---,0.03,VWS V14.01,2013-12-27 04:19:00,
2013-12-26 23:24:00,22.7,16.9,30.38,West,273,0.0,0.0,78,0.00,,---,0.03,VWS V14.01,2013-12-27 04:24:00,
2013-12-26 23:29:00,22.5,17.0,30.38,West,273,0.0,0.0,79,0.00,,---,0.03,VWS V14.01,2013-12-27 04:29:00,
2013-12-26 23:34:00,22.4,16.9,30.38,West,273,0.0,0.0,79,0.00,,---,0.03,VWS V14.01,2013-12-27 04:34:00,
2013-12-26 23:39:00,22.2,16.7,30.38,West,273,0.0,0.0,79,0.00,,---,0.03,VWS V14.01,2013-12-27 04:39:00,
2013-12-26 23:44:00,22.2,17.0,30.38,West,273,0.0,0.0,80,0.00,,---,0.03,VWS V14.01,2013-12-27 04:44:00,
2013-12-26 23:48:00,22.1,16.9,30.38,West,273,0.0,0.0,80,0.00,,---,0.03,VWS V14.01,2013-12-27 04:48:00,
2013-12-26 23:53:00,22.0,16.8,30.38,West,273,0.0,0.0,80,0.00,,---,0.03,VWS V14.01,2013-12-27 04:53:00,
2013-12-26 23:58:00,22.0,17.1,30.38,West,273,0.0,0.0,81,0.00,,---,0.00,VWS V14.01,2013-12-27 04:58:00,